Hourly Weather Holyadyn

Today, 11 April, Sunday

Time Temperature Precipitation Wind Pressure Humidity
00:00 +7°C° 0 mm 4 mps 749 mmHg 70%
01:00 +6°C° 0 mm 4 mps 750 mmHg 73%
02:00 +7°C° 0 mm 3 mps 750 mmHg 75%
03:00 +7°C° 0 mm 3 mps 750 mmHg 75%
04:00 +5°C° 0 mm 3 mps 750 mmHg 76%
05:00 +5°C° 0 mm 3 mps 750 mmHg 76%
06:00 +7°C° 0 mm 3 mps 750 mmHg 73%
07:00 +7°C° 0 mm 4 mps 751 mmHg 69%
08:00 +8°C° 0 mm 4 mps 751 mmHg 66%
09:00 +10°C° 0 mm 5 mps 751 mmHg 59%
10:00 +13°C° 0 mm 5 mps 751 mmHg 53%
11:00 +15°C° 0 mm 6 mps 751 mmHg 46%
12:00 +15°C° 0 mm 6 mps 751 mmHg 44%
13:00 +16°C° 0 mm 6 mps 751 mmHg 41%
14:00 +17°C° 0 mm 7 mps 750 mmHg 39%
15:00 +17°C° 0 mm 6 mps 750 mmHg 41%
16:00 +17°C° 0 mm 6 mps 750 mmHg 42%
17:00 +16°C° 0 mm 6 mps 750 mmHg 44%
18:00 +15°C° 0 mm 6 mps 750 mmHg 47%
19:00 +13°C° 0 mm 5 mps 750 mmHg 51%
20:00 +12°C° 0 mm 5 mps 750 mmHg 54%
21:00 +10°C° 0 mm 5 mps 751 mmHg 53%
22:00 +10°C° 0 mm 6 mps 751 mmHg 52%
23:00 +9°C° 0 mm 6 mps 751 mmHg 52%

Tomorrow, 12 April, Monday

Time Temperature Precipitation Wind Pressure Humidity
00:00 +9°C° 0 mm 6 mps 751 mmHg 53%
01:00 +8°C° 0 mm 5 mps 751 mmHg 54%
02:00 +8°C° 0 mm 5 mps 750 mmHg 55%
03:00 +7°C° 0 mm 5 mps 750 mmHg 57%
04:00 +7°C° 0 mm 4 mps 750 mmHg 59%
05:00 +6°C° 0 mm 4 mps 750 mmHg 62%
06:00 +7°C° 0 mm 4 mps 750 mmHg 63%
07:00 +7°C° 0 mm 5 mps 750 mmHg 64%
08:00 +8°C° 0 mm 5 mps 750 mmHg 64%
09:00 +9°C° 0 mm 5 mps 750 mmHg 62%
10:00 +10°C° 0 mm 5 mps 749 mmHg 59%
11:00 +13°C° 0 mm 6 mps 749 mmHg 57%
12:00 +14°C° 0 mm 5 mps 749 mmHg 56%
13:00 +15°C° 0 mm 5 mps 749 mmHg 55%
14:00 +16°C° 0 mm 5 mps 748 mmHg 54%
15:00 +15°C° 0 mm 5 mps 748 mmHg 57%
16:00 +14°C° 0 mm 4 mps 748 mmHg 60%
17:00 +14°C° 0 mm 3 mps 748 mmHg 64%
18:00 +13°C° 0 mm 3 mps 748 mmHg 67%
19:00 +13°C° 0 mm 2 mps 749 mmHg 69%
20:00 +13°C° 0 mm 2 mps 749 mmHg 72%
21:00 +12°C° 0 mm 2 mps 749 mmHg 74%
22:00 +12°C° 0 mm 2 mps 749 mmHg 75%
23:00 +12°C° 0 mm 2 mps 749 mmHg 77%

Day after tomorrow, 13 April, Tuesday

Time Temperature Precipitation Wind Pressure Humidity
00:00 +10°C° 0 mm 2 mps 749 mmHg 81%
01:00 +9°C° 0 mm 2 mps 749 mmHg 85%
02:00 +9°C° 0 mm 2 mps 749 mmHg 89%
03:00 +8°C° 0 mm 2 mps 749 mmHg 91%
04:00 +8°C° 0 mm 2 mps 749 mmHg 92%
05:00 +7°C° 0 mm 3 mps 749 mmHg 93%
06:00 +7°C° 0 mm 3 mps 749 mmHg 92%
07:00 +7°C° 0 mm 3 mps 749 mmHg 91%
08:00 +8°C° 0 mm 3 mps 750 mmHg 90%
09:00 +8°C° 0.2 mm 3 mps 750 mmHg 89%
10:00 +7°C° 0.2 mm 4 mps 750 mmHg 89%
11:00 +6°C° 0.2 mm 4 mps 750 mmHg 88%
12:00 +6°C° 0.1 mm 4 mps 750 mmHg 88%
13:00 +6°C° 0.1 mm 5 mps 750 mmHg 87%
14:00 +6°C° 0.1 mm 5 mps 750 mmHg 87%
15:00 +5°C° 0 mm 5 mps 750 mmHg 86%
16:00 +5°C° 0 mm 5 mps 750 mmHg 86%
17:00 +5°C° 0 mm 5 mps 749 mmHg 85%
18:00 +5°C° 0.1 mm 5 mps 749 mmHg 86%
19:00 +3°C° 0.1 mm 5 mps 749 mmHg 87%
20:00 +3°C° 0.1 mm 5 mps 749 mmHg 88%
21:00 +3°C° 0 mm 6 mps 749 mmHg 89%
22:00 +2°C° 0 mm 6 mps 749 mmHg 89%
23:00 +2°C° 0 mm 6 mps 749 mmHg 90%

14 April, Wednesday

Time Temperature Precipitation Wind Pressure Humidity
00:00 +2°C° 0 mm 6 mps 748 mmHg 89%
01:00 +2°C° 0 mm 6 mps 748 mmHg 89%
02:00 +2°C° 0 mm 6 mps 748 mmHg 88%
03:00 +2°C° 0 mm 6 mps 748 mmHg 89%
04:00 +1°C° 0 mm 6 mps 747 mmHg 89%
05:00 +1°C° 0 mm 6 mps 747 mmHg 90%
06:00 +1°C° 0 mm 6 mps 747 mmHg 91%
07:00 +1°C° 0 mm 6 mps 747 mmHg 91%
08:00 +1°C° 0 mm 6 mps 747 mmHg 92%
09:00 +1°C° 0.1 mm 5 mps 747 mmHg 92%
10:00 +1°C° 0.1 mm 5 mps 747 mmHg 93%
11:00 +1°C° 0.1 mm 5 mps 747 mmHg 93%
12:00 +1°C° 0.2 mm 5 mps 747 mmHg 93%
13:00 +1°C° 0.2 mm 5 mps 747 mmHg 93%
14:00 +1°C° 0.2 mm 5 mps 747 mmHg 93%
15:00 +1°C° 0.3 mm 5 mps 746 mmHg 94%
16:00 +1°C° 0.3 mm 5 mps 746 mmHg 95%
17:00 0°C° 0.3 mm 5 mps 746 mmHg 96%
18:00 0°C° 0.3 mm 4 mps 746 mmHg 96%
19:00 0°C° 0.3 mm 4 mps 746 mmHg 96%
20:00 0°C° 0.3 mm 4 mps 746 mmHg 97%
21:00 0°C° 0.1 mm 4 mps 746 mmHg 97%
22:00 +1°C° 0.1 mm 3 mps 746 mmHg 97%
23:00 +1°C° 0.1 mm 3 mps 746 mmHg 97%

15 April, Thursday

Time Temperature Precipitation Wind Pressure Humidity
00:00 +1°C° 0.1 mm 3 mps 746 mmHg 97%
01:00 +2°C° 0.1 mm 2 mps 746 mmHg 97%
02:00 +2°C° 0.1 mm 2 mps 746 mmHg 97%
03:00 +2°C° 0.2 mm 2 mps 746 mmHg 98%
04:00 +3°C° 0.2 mm 2 mps 746 mmHg 98%
05:00 +3°C° 0.2 mm 2 mps 746 mmHg 98%
06:00 +3°C° 0.1 mm 2 mps 746 mmHg 98%
07:00 +4°C° 0.1 mm 2 mps 746 mmHg 97%
08:00 +4°C° 0.1 mm 2 mps 746 mmHg 97%
09:00 +4°C° 0 mm 3 mps 746 mmHg 96%
10:00 +5°C° 0 mm 3 mps 747 mmHg 96%
11:00 +5°C° 0 mm 3 mps 747 mmHg 95%
12:00 +6°C° 0 mm 4 mps 747 mmHg 91%
13:00 +8°C° 0 mm 4 mps 747 mmHg 86%
14:00 +10°C° 0 mm 4 mps 747 mmHg 82%
15:00 +8°C° 0.2 mm 5 mps 747 mmHg 85%
16:00 +7°C° 0.2 mm 5 mps 747 mmHg 88%
17:00 +5°C° 0.2 mm 6 mps 747 mmHg 90%
18:00 +5°C° 0.7 mm 5 mps 748 mmHg 92%
19:00 +5°C° 0.7 mm 5 mps 748 mmHg 93%
20:00 +3°C° 0.7 mm 5 mps 748 mmHg 94%
21:00 +4°C° 0.4 mm 4 mps 748 mmHg 94%
22:00 +4°C° 0.4 mm 4 mps 748 mmHg 94%
23:00 +3°C° 0.4 mm 4 mps 748 mmHg 94%

16 April, Friday

Time Temperature Precipitation Wind Pressure Humidity
00:00 +3°C° 0.3 mm 4 mps 748 mmHg 94%
01:00 +3°C° 0.3 mm 4 mps 748 mmHg 94%
02:00 +3°C° 0.3 mm 4 mps 748 mmHg 94%
03:00 +3°C° 0.1 mm 4 mps 748 mmHg 94%
04:00 +3°C° 0.1 mm 4 mps 748 mmHg 94%
05:00 +3°C° 0.1 mm 4 mps 749 mmHg 94%
06:00 +3°C° 0 mm 4 mps 749 mmHg 94%
07:00 +3°C° 0 mm 4 mps 749 mmHg 94%
08:00 +3°C° 0 mm 4 mps 749 mmHg 93%
09:00 +4°C° 0 mm 4 mps 750 mmHg 93%
10:00 +4°C° 0 mm 4 mps 750 mmHg 93%
11:00 +4°C° 0 mm 4 mps 750 mmHg 93%
12:00 +4°C° 0.2 mm 4 mps 751 mmHg 92%
13:00 +4°C° 0.2 mm 4 mps 751 mmHg 92%
14:00 +5°C° 0.2 mm 4 mps 751 mmHg 92%
15:00 +5°C° 0 mm 5 mps 751 mmHg 91%
16:00 +5°C° 0 mm 5 mps 752 mmHg 89%
17:00 +5°C° 0 mm 5 mps 752 mmHg 87%
18:00 +3°C° 0 mm 5 mps 753 mmHg 90%
19:00 +2°C° 0 mm 5 mps 753 mmHg 92%
20:00 +2°C° 0 mm 5 mps 754 mmHg 95%
21:00 +3°C° 0 mm 4 mps 754 mmHg 94%
22:00 +3°C° 0 mm 4 mps 754 mmHg 92%
23:00 +3°C° 0 mm 3 mps 754 mmHg 91%
Show more